User: anonymous   Login
Location: St. Louis
(38.6270°N, 90.1994°W)
Time: 02:44:25
(UTC-05:00)
Language:

deb Delta - Orbit

View from above orbital plane
View from above orbital plane
View from above satellite
View from above satellite

Ground track
Ground track

The orbit data is extracted from the following two-line orbital elements,

1 21284U 75052V   22176.90883461  .00000041  00000-0  17340-3 0  9996
2 21284  99.8220 297.5060 0076792 223.2552 248.5173 13.30941806512362
Epoch (UTC): 25 June 2022 21:48:43
Eccentricity: 0.0076792
inclination: 99.8220°
perigee height: 1085 km
apogee height: 1201 km
right ascension of ascending node: 297.5060°
argument of perigee: 223.2552°
revolutions per day: 13.30941806
mean anomaly at epoch: 248.5173°
orbit number at epoch: 51236

The dashed part of the orbit path shows where the satellite is in the earth's shadow,  

DLR